weather.gov     
National Weather Service

Regional Weather Roundup
NWS Homepage
This page is being discontinued on March 12, 2014.
The same data is available at this site. Please update your bookmarks.
Thank you, and we apologize for the inconvenience.
Please send an email to SR-SRH.Webmaster@noaa.gov with any concerns.


Current Version
Previous Version:    01  02  03  04  05  06  07  08  09  10  11  12  13  14  15  16  17  18  19  20  21  22  23  24  25  26  
[Printable]
033
ASUS44 KLCH 261810
RWRLCH
RWRLCH
REGIONAL WEATHER ROUNDUP
NATIONAL WEATHER SERVICE LAKE CHARLES LA
1200 PM CST MON JAN 26 2015

Note: "fair" indicates few or no clouds below 12,000 feet with no
significant weather and/or obstructions to visibility.


ACROSS SOUTHEAST TEXAS

CITY           SKY/WX    TMP DP  RH WIND       PRES   REMARKS
BEAUMONT       SUNNY     63  33  32 NW9       30.20F
BEAUMONT CITY    N/A     60  35  40 N3        30.21F
ORANGE         CLEAR     60  35  39 NW6       30.21F
JASPER         SUNNY     57  34  41 N12G17    30.23F
$$

ACROSS CENTRAL LOUISIANA

CITY           SKY/WX    TMP DP  RH WIND       PRES   REMARKS
LEESVILLE      SUNNY     57  33  40 NW10      30.16F
FULLERTON        N/A     60  33  36 VRB7      30.14F
ALEXANDRIA INT SUNNY     54  36  50 VRB5      30.17F
ESLER FIELD    SUNNY     57  34  41 VRB7      30.16F
DERIDDER         N/A     57  32  39 NW9G16    30.21F
OAKDALE        CLEAR     59  34  39 N8        30.17F
OPELOUSAS        N/A     54  37  52 N8        30.17F
$$

ACROSS SOUTHWEST AND SOUTH CENTRAL LOUISIANA

CITY           SKY/WX    TMP DP  RH WIND       PRES   REMARKS
SULPHUR        CLEAR     61  33  35 N14       30.19F
LAKE CHARLES   SUNNY     60  34  37 N13G20    30.18F
CHENNAULT INT  SUNNY     57  34  41 N16       30.19
CAMERON PHI    CLEAR     57  36  44 NW9       30.22F
DEQUINCY         N/A     58  34  40 N6        30.19F
JENNINGS         N/A     55  37  49 N6        30.18F
LAFAYETTE      SUNNY     58  36  43 NW10      30.16F
NEW IBERIA     SUNNY     57  36  45 NW10      30.16F
ABBEVILLE        N/A     56  36  46 NW12G17   30.17F
PATTERSON      SUNNY     57  34  41 NW10      30.15F
SALT POINT       N/A     55  40  56 W10       30.14F
$$

SELECTED SITES ACROSS THE REGION

CITY           SKY/WX    TMP DP  RH WIND       PRES   REMARKS
HOUSTON BUSH   PTSUNNY   60  33  36 W5        30.25F
HOUSTON HOBBY  PTSUNNY   60  33  36 NW8       30.25F
GALVESTON      MOSUNNY   60  38  43 W6        30.25F
COLLEGE STAT   SUNNY     59  34  39 W8        30.25F
CONROE         SUNNY     58  34  40 SW7       30.24F
HUNTSVILLE     SUNNY     60  34  37 W5        30.23F
LUFKIN         SUNNY     63  31  30 VRB7      30.21F
SHREVEPORT     SUNNY     56  33  42 N6        30.17F
MONROE         SUNNY     52  35  52 NW5       30.18F
NATCHEZ MS     SUNNY     52  34  50 N12G20    30.16F
BATON ROUGE    SUNNY     57  33  40 NW12      30.13F
N.O. INTL ARPT MOSUNNY   57  37  47 NW13      30.11F
SLIDELL        SUNNY     61  35  37 NW12G17   30.09F
$$

MARINE REPORTS

STATION/POSITION TIME  TEMP    WIND        PRES    VSBY  WAVE
                       AIR SEA DIR/SP/G                  HT/PER
                 (UTC) (F)     (DEG/KT/KT) (MB)    (MI)  (FT/S)
BUOY 30 S HIGH I 1800   53 56  280/ 10/ 10 1023.8F         1/ 5
SEA RIM ST PARK  1800   58     320/  8/  9 1023.5F
PORT ARTHUR      1800      51  330/  9/ 12 1022.8F
SABINE PASS N    NOT AVBL
TEXAS POINT      NOT AVBL
CALCASIEU PASS   1800   55 53  360/  8/ 13   N/A
LK CHARLES BEACH 1800   57 51              1022.2F
MARSH ISLAND     NOT AVBL
FRESH WATER LOCK 1800   54 54  300/  9/ 13 1021.8F
AMERADA PASS     1800   53 45  260/  5/ 11 1020.8F
$$




U.S. Dept. of Commerce
NOAA National Weather Service
1325 East West Highway
Silver Spring, MD 20910
E-mail: w-nws.webmaster@noaa.gov
Page last modified: May 16, 2007
NATIONAL WEATHER SERVICE: for Safety, for Work, for Fun - FOR LIFE